OPS 4682 DEB, 55116

Orbit data source: Space-Track

OPS 4682 DEB, 55116 is space debris in LEO originally from a launch on Sat, 03 Apr 1965 UTC launched from the Air Force Western Test Range (AFWTR). Debris objects in space refer to the collection of defunct objects orbiting the Earth. Examples of debris include non-operational satellites, rocket bodies, and fragments generated from explosions, collisions, or faulty payload assembly.

Loading next visibility...
Identifier
55116, 1965-027HF
Orbit
LEO
Country
Flag of USUS
Related business
Manufacturer
Unknown
Mission
Spacecraft
Bus & Motor
Unknown
Mass
Unknown
Launch date (UTC)
1965-04-03 (61 years ago)
Launch vehicle
Unknown
Launch site
Air Force Western Test Range (AFWTR)
Object type
Payload
Rocket body
Debris
Shape & HBR
Unknown
Radar Cross Section
Medium (>0.1 m² and <1 m²)

Expand to show TLE details & history
Last TLE update: 2 days ago

TLE from 2 days ago
0 OPS 4682 DEB
1 55116U 65027HF  26205.88974835  .00000557  00000-0  18505-2 0  9993
2 55116  90.2421   8.0417 0030198 242.4052 117.4002 12.98996144518976
Epoch: 2026-07-24T21:21Z
TLE epoch observation values (Epoch: 2026-07-24T21:21:14.257Z)
Latitude
-0.00001°
Longitude
105.1224°
Altitude
1,279.585 km
Speed
7.211 km/s
True Right ascension
00h 32m 10s
True Declination
0° 00' 00"
Sunlit
Object was in daylight at epoch
Visualization orbit readout
Latitude
Unknown
Longitude
Unknown
Altitude
Unknown
Speed
Unknown
Apparent Right ascension
Unknown
Apparent Declination
Unknown
Sunlit
N/A
Visualization observer readout
Local Sidereal Time
21:03:04
Azimuth
Unknown
Elevation
Unknown
Doppler factor
Unknown
Orbital elements
Apogee altitude
1,286.226 km
Perigee altitude
1,240.076 km
Semi-major axis
7,641.288 km
Eccentricity
0.00302
Inclination
90.2421°
RAAN
8.0417°
Arg. of periapsis
242.4052°
True anomaly
117.70689°
Mean anomaly
117.4002°
Eccentric anomaly
117.5536°
Mean motion
3.24933 °/min
Orbital period
110.79 mins
BSTAR
0.0018505
Loading maneuver chart data...
Computing Atmospheric mass density...
Loading historical data...
Loading historical data...
Loading historical data...
Loading historical data...
Loading historical data...
Loading historical data...
Loading historical data...

Documentation

Showing up to 5 results
|